Troy, MI

6:01 AM EST on February 12, 2016 (GMT -0500)
Troy

Weather History for KVLL - October, 2012

Change the Weather History Date:

Tuesday, October 2, 2012

  Actual Average (KDET) Record (KDET)
Temperature  
Mean Temperature 61 °F -  
Max Temperature 69 °F 67 °F 85 °F (1963)
Min Temperature 53 °F 50 °F 34 °F (1974)
Degree Days  
Heating Degree Days 4    
Growing Degree Days 11 (Base 50)    
Moisture  
Dew Point 50 °F    
Average Humidity 68    
Maximum Humidity 90    
Minimum Humidity 49    
Precipitation  
Precipitation 0.00 in - - ()
Sea Level Pressure  
Sea Level Pressure 29.90 in    
Wind  
Wind Speed 4 mph (NE)    
Max Wind Speed 12 mph    
Max Gust Speed 22 mph    
Visibility 10 miles    
Events Rain    
Averages and records for this station are not official NWS values.
T = Trace of Precipitation, MM = Missing Value Source: NWS Daily Summary

Daily Weather History Graph

Daily Weather History Graph

Search for Another Location

Airport or City:

Trip Planner

Search our weather history database for the weather conditions in past years. The results will help you decide how hot, cold, wet, or windy it might be!

Date:

Astronomy

Oct. 02, 2012 Rise Set
Actual Time 7:31 AM EDT 7:11 PM EDT
Civil Twilight 7:03 AM EDT 7:39 PM EDT
Nautical Twilight 6:30 AM EDT 8:12 PM EDT
Astronomical Twilight 5:57 AM EDT 8:45 PM EDT
Moon 8:19 PM EDT (10/2) 10:01 AM EDT (10/2)
Length of Visible Light 12h 36m
Length of Day
11h 40m
Waning Gibbous, 94% of the Moon is Illuminated
Oct 2
Waning Gibbous
Oct 8
Last Quarter
Oct 15
New
Oct 21
First Quarter
Oct 29
Full

Hourly Weather History & Observations

Time (EDT) Temp. Dew Point Humidity Pressure Visibility Wind Dir Wind Speed Gust Speed Precip Events Conditions
12:15 AM 56.7 °F 44.6 °F 64% 29.89 in 10.0 mi Calm Calm - N/A   Clear
12:35 AM 56.8 °F 44.6 °F 64% 29.88 in 10.0 mi Calm Calm - N/A   Clear
12:55 AM 57.2 °F 45.0 °F 64% 29.88 in 10.0 mi Calm Calm - N/A   Scattered Clouds
1:15 AM 57.0 °F 45.3 °F 65% 29.87 in 10.0 mi NNE 3.5 mph - N/A   Mostly Cloudy
1:34 AM 56.7 °F 45.7 °F 67% 29.87 in 10.0 mi ENE 3.5 mph - N/A   Overcast
1:55 AM 56.1 °F 46.9 °F 71% 29.87 in 10.0 mi NE 4.6 mph - N/A Rain Light Rain
2:15 AM 55.4 °F 49.1 °F 79% 29.86 in 10.0 mi ENE 4.6 mph - N/A Rain Light Rain
2:34 AM 55.0 °F 48.9 °F 80% 29.87 in 10.0 mi NNE 3.5 mph - N/A Rain Light Rain
3:15 AM 54.9 °F 48.9 °F 80% 29.87 in 10.0 mi NNE 3.5 mph - N/A   Overcast
3:35 AM 55.4 °F 48.0 °F 76% 29.85 in 10.0 mi ENE 5.8 mph - N/A   Overcast
3:55 AM 55.4 °F 48.2 °F 77% 29.86 in 10.0 mi NE 3.5 mph - N/A   Overcast
4:15 AM 55.0 °F 48.6 °F 79% 29.86 in 10.0 mi NNE 3.5 mph - N/A   Overcast
4:35 AM 55.4 °F 48.2 °F 77% 29.86 in 10.0 mi ENE 3.5 mph - N/A   Overcast
4:55 AM 55.2 °F 48.2 °F 77% 29.86 in 10.0 mi ENE 4.6 mph - N/A   Overcast
5:15 AM 55.0 °F 48.4 °F 78% 29.85 in 10.0 mi NE 6.9 mph - N/A   Overcast
5:35 AM 55.0 °F 48.4 °F 78% 29.86 in 10.0 mi NNE 4.6 mph - N/A Rain Light Rain
5:55 AM 54.0 °F 49.1 °F 84% 29.87 in 7.0 mi North 3.5 mph - N/A Rain Rain
6:35 AM 53.2 °F 50.0 °F 89% 29.88 in 10.0 mi North 4.6 mph - N/A Rain Light Rain
6:54 AM 53.6 °F 50.2 °F 88% 29.89 in 10.0 mi North 4.6 mph - N/A Rain Light Rain
7:15 AM 54.0 °F 50.9 °F 89% 29.88 in 10.0 mi NNE 4.6 mph - N/A Rain Light Rain
7:35 AM 53.8 °F 50.9 °F 90% 29.89 in 10.0 mi NNE 3.5 mph - N/A   Overcast
7:54 AM 53.8 °F 50.9 °F 90% 29.90 in 10.0 mi Calm Calm - N/A Rain Light Rain
8:15 AM 54.1 °F 51.3 °F 90% 29.90 in 10.0 mi Calm Calm - N/A Rain Light Rain
8:34 AM 54.5 °F 51.1 °F 88% 29.90 in 10.0 mi North 5.8 mph - N/A Rain Light Rain
8:55 AM 54.9 °F 51.4 °F 88% 29.90 in 10.0 mi North 5.8 mph - N/A Rain Light Rain
9:15 AM 55.6 °F 51.8 °F 87% 29.91 in 10.0 mi NE 3.5 mph - N/A Rain Light Rain
9:34 AM 55.8 °F 51.1 °F 84% 29.91 in 10.0 mi East 5.8 mph - N/A   Overcast
9:55 AM 55.8 °F 51.3 °F 85% 29.91 in 10.0 mi ENE 6.9 mph - N/A   Overcast
10:15 AM 57.0 °F 52.7 °F 85% 29.91 in 10.0 mi Calm Calm - N/A   Overcast
10:34 AM 58.1 °F 53.1 °F 83% 29.91 in 10.0 mi NNE 5.8 mph - N/A   Overcast
10:55 AM 59.2 °F 52.7 °F 79% 29.91 in 10.0 mi NE 8.1 mph - N/A   Overcast
11:15 AM 60.4 °F 53.1 °F 77% 29.91 in 10.0 mi ENE 5.8 mph - N/A   Overcast
11:35 AM 60.8 °F 50.7 °F 69% 29.91 in 10.0 mi ENE 8.1 mph - N/A   Overcast
11:55 AM 62.1 °F 51.3 °F 68% 29.91 in 10.0 mi ENE 4.6 mph - N/A   Overcast
12:15 PM 63.0 °F 52.5 °F 69% 29.91 in 10.0 mi ENE 8.1 mph - N/A   Overcast
12:35 PM 63.5 °F 51.1 °F 64% 29.90 in 10.0 mi ENE 9.2 mph - N/A   Overcast
12:52 PM 63.9 °F 50.9 °F 63% 29.90 in 10.0 mi ENE 8.1 mph - N/A   Overcast
1:15 PM 65.7 °F 49.3 °F 55% 29.90 in 10.0 mi East 11.5 mph 21.9 mph N/A   Mostly Cloudy
1:35 PM 66.4 °F 49.8 °F 55% 29.90 in 10.0 mi ENE 10.4 mph 18.4 mph N/A   Overcast
1:55 PM 66.6 °F 50.2 °F 56% 29.89 in 10.0 mi East 8.1 mph 16.1 mph N/A   Mostly Cloudy
2:15 PM 67.1 °F 50.0 °F 54% 29.89 in 10.0 mi East 8.1 mph - N/A   Mostly Cloudy
2:34 PM 68.0 °F 50.5 °F 54% 29.88 in 10.0 mi NNE 4.6 mph - N/A   Mostly Cloudy
2:55 PM 69.6 °F 49.8 °F 49% 29.88 in 10.0 mi East 5.8 mph - N/A   Scattered Clouds
3:15 PM 69.3 °F 51.8 °F 54% 29.87 in 10.0 mi NNE 6.9 mph - N/A   Mostly Cloudy
3:35 PM 68.9 °F 50.7 °F 52% 29.87 in 10.0 mi NE 5.8 mph - N/A   Overcast
3:55 PM 68.7 °F 50.5 °F 52% 29.87 in 10.0 mi Calm Calm - N/A   Overcast
4:14 PM 68.9 °F 50.2 °F 51% 29.88 in 10.0 mi ENE 5.8 mph - N/A   Overcast
4:35 PM 69.4 °F 51.1 °F 52% 29.88 in 10.0 mi NNE 6.9 mph - N/A   Overcast
4:55 PM 68.9 °F 50.2 °F 51% 29.88 in 10.0 mi NE 5.8 mph - N/A   Overcast
5:14 PM 69.1 °F 50.2 °F 51% 29.88 in 10.0 mi NE 6.9 mph - N/A   Overcast
5:35 PM 69.1 °F 51.1 °F 53% 29.88 in 10.0 mi ENE 6.9 mph - N/A   Overcast
5:55 PM 68.9 °F 51.1 °F 53% 29.89 in 10.0 mi NNE 8.1 mph - N/A   Mostly Cloudy
6:14 PM 69.1 °F 50.5 °F 52% 29.89 in 10.0 mi NE 10.4 mph - N/A   Mostly Cloudy
6:35 PM 68.4 °F 50.2 °F 52% 29.90 in 10.0 mi ENE 8.1 mph - N/A   Scattered Clouds
6:55 PM 67.3 °F 49.6 °F 53% 29.90 in 10.0 mi ENE 6.9 mph - N/A   Clear
7:15 PM 66.6 °F 49.5 °F 54% 29.90 in 10.0 mi NE 5.8 mph - N/A   Clear
7:35 PM 65.3 °F 49.5 °F 57% 29.90 in 10.0 mi NE 5.8 mph - N/A   Clear
7:55 PM 64.8 °F 48.7 °F 56% 29.91 in 10.0 mi ENE 3.5 mph - N/A   Clear
8:15 PM 63.9 °F 48.7 °F 58% 29.92 in 10.0 mi NNE 5.8 mph - N/A   Clear
8:35 PM 63.0 °F 48.7 °F 60% 29.93 in 10.0 mi NE 4.6 mph - N/A   Clear
8:54 PM 63.5 °F 48.2 °F 57% 29.93 in 10.0 mi NE 6.9 mph - N/A   Clear
9:15 PM 63.0 °F 48.2 °F 59% 29.93 in 10.0 mi East 5.8 mph - N/A   Clear
9:35 PM 62.4 °F 48.0 °F 59% 29.94 in 10.0 mi ENE 8.1 mph - N/A   Clear
9:54 PM 61.7 °F 48.4 °F 62% 29.94 in 10.0 mi ENE 5.8 mph - N/A   Scattered Clouds
10:15 PM 61.2 °F 49.1 °F 65% 29.95 in 10.0 mi NE 5.8 mph - N/A   Mostly Cloudy
10:35 PM 60.8 °F 50.2 °F 68% 29.95 in 10.0 mi ENE 4.6 mph - N/A   Mostly Cloudy
10:54 PM 60.8 °F 50.5 °F 69% 29.94 in 10.0 mi NE 5.8 mph - N/A   Mostly Cloudy
11:15 PM 60.8 °F 50.9 °F 70% 29.95 in 10.0 mi NE 4.6 mph - N/A   Overcast
11:35 PM 60.8 °F 50.5 °F 69% 29.95 in 10.0 mi NNE 3.5 mph - N/A   Overcast
11:54 PM 60.6 °F 51.3 °F 71% 29.94 in 10.0 mi NNE 4.6 mph - N/A   Overcast